| time (UTC) | temp F | wind direction | speed knots | gust knots | rain 1hr in | rain 24hr in | rain mn in | humidity % | barometer mb |
| 20260507052423 | 48 | 123 | 0.0 | 0.0 | 0.00 | 0.00 | 0.00 | 95 | 1020.2 |
| 20260507051920 | 47 | 123 | 0.0 | 0.0 | 0.00 | 0.00 | 0.00 | 95 | 1019.9 |
| 20260507051418 | 47 | 123 | 0.0 | 0.0 | 0.00 | 0.00 | 0.00 | 95 | 1020.0 |
| 20260507050915 | 47 | 123 | 0.9 | 0.9 | 0.00 | 0.00 | 0.00 | 95 | 1020.1 |
| 20260507050411 | 47 | 123 | 0.0 | 0.0 | 0.00 | 0.00 | 0.00 | 94 | 1019.8 |
| 20260507045908 | 47 | 123 | 0.0 | 0.0 | 0.00 | 0.00 | 0.00 | 94 | 1020.2 |
| 20260507045405 | 48 | 123 | 0.0 | 0.0 | 0.00 | 0.00 | 0.00 | 94 | 1020.1 |
| 20260507044902 | 48 | 124 | 0.0 | 0.0 | 0.00 | 0.00 | 0.00 | 94 | 1020.1 |
| 20260507044358 | 48 | 124 | 0.0 | 0.0 | 0.00 | 0.00 | 0.00 | 94 | 1020.2 |
| 20260507043854 | 48 | 123 | 0.0 | 0.0 | 0.00 | 0.00 | 0.00 | 94 | 1020.2 |
| 20260507043351 | 48 | 123 | 0.0 | 0.0 | 0.00 | 0.00 | 0.00 | 94 | 1020.2 |
| 20260507042847 | 48 | 123 | 0.0 | 0.0 | 0.00 | 0.00 | 0.00 | 93 | 1020.1 |
| 20260507042343 | 49 | 123 | 0.0 | 0.9 | 0.00 | 0.00 | 0.00 | 93 | 1020.1 |
| 20260507041840 | 49 | 123 | 0.0 | 0.9 | 0.00 | 0.00 | 0.00 | 93 | 1020.1 |
| 20260507041337 | 50 | 124 | 0.0 | 0.0 | 0.00 | 0.00 | 0.00 | 93 | 1020.0 |
| 20260507040834 | 50 | 124 | 0.0 | 0.0 | 0.00 | 0.00 | 0.00 | 93 | 1020.1 |
| 20260507040330 | 50 | 124 | 0.0 | 0.9 | 0.00 | 0.00 | 0.00 | 92 | 1020.1 |
| 20260507035826 | 50 | 124 | 0.0 | 0.0 | 0.00 | 0.00 | 0.00 | 93 | 1019.9 |
| 20260507035321 | 50 | 124 | 0.0 | 0.0 | 0.00 | 0.00 | 0.00 | 93 | 1019.8 |
| 20260507034820 | 50 | 124 | 0.0 | 0.0 | 0.00 | 0.00 | 0.00 | 93 | 1019.9 |
| 20260507034316 | 50 | 123 | 0.0 | 0.0 | 0.00 | 0.00 | 0.00 | 93 | 1019.8 |
| 20260507033814 | 49 | 122 | 0.0 | 0.0 | 0.00 | 0.00 | 0.00 | 93 | 1019.9 |
| 20260507033312 | 50 | 122 | 0.0 | 0.0 | 0.00 | 0.00 | 0.00 | 93 | 1019.7 |
| 20260507032809 | 50 | 122 | 0.0 | 0.0 | 0.00 | 0.00 | 0.00 | 93 | 1019.7 |
| 20260507032306 | 50 | 122 | 0.0 | 0.0 | 0.00 | 0.00 | 0.00 | 93 | 1019.9 |
| 20260507031801 | 51 | 123 | 0.0 | 0.0 | 0.00 | 0.00 | 0.00 | 93 | 1019.9 |
| 20260507031258 | 51 | 122 | 0.0 | 0.0 | 0.00 | 0.00 | 0.00 | 92 | 1019.6 |
| 20260507030755 | 51 | 122 | 0.0 | 0.0 | 0.00 | 0.00 | 0.00 | 92 | 1019.8 |
| 20260507030252 | 51 | 122 | 0.9 | 0.9 | 0.00 | 0.00 | 0.00 | 92 | 1019.8 |
| 20260507025749 | 51 | 121 | 0.0 | 0.0 | 0.00 | 0.00 | 0.00 | 92 | 1019.5 |
| 20260507025246 | 51 | 121 | 0.0 | 0.0 | 0.00 | 0.00 | 0.00 | 92 | 1019.6 |
| 20260507024745 | 51 | 118 | 0.0 | 0.9 | 0.00 | 0.00 | 0.00 | 93 | 1019.4 |
| 20260507024241 | 51 | 114 | 0.0 | 0.0 | 0.00 | 0.00 | 0.00 | 93 | 1019.3 |
| 20260507023737 | 51 | 113 | 0.0 | 0.0 | 0.00 | 0.00 | 0.00 | 93 | 1019.2 |
| 20260507023234 | 51 | 108 | 0.0 | 0.0 | 0.00 | 0.00 | 0.00 | 94 | 1019.4 |
| 20260507022731 | 50 | 108 | 0.0 | 0.0 | 0.00 | 0.00 | 0.00 | 93 | 1019.1 |
| 20260507022227 | 50 | 108 | 0.0 | 0.0 | 0.00 | 0.00 | 0.00 | 93 | 1019.2 |
| 20260507021724 | 50 | 108 | 0.0 | 0.0 | 0.00 | 0.00 | 0.00 | 93 | 1019.2 |
| 20260507021219 | 51 | 108 | 0.0 | 0.0 | 0.00 | 0.00 | 0.00 | 93 | 1018.9 |
| 20260507020718 | 51 | 108 | 0.0 | 0.0 | 0.00 | 0.00 | 0.00 | 93 | 1018.9 |
| 20260507020214 | 51 | 108 | 0.0 | 0.0 | 0.00 | 0.00 | 0.00 | 93 | 1018.8 |
| 20260507015712 | 51 | 110 | 0.0 | 0.0 | 0.00 | 0.21 | 0.21 | 92 | 1018.8 |
| 20260507015209 | 51 | 110 | 0.0 | 0.9 | 0.00 | 0.21 | 0.21 | 92 | 1019.0 |
| 20260507014705 | 51 | 93 | 0.0 | 0.0 | 0.00 | 0.21 | 0.21 | 92 | 1018.8 |
| 20260507014201 | 51 | 112 | 0.9 | 0.9 | 0.00 | 0.21 | 0.21 | 92 | 1018.9 |
| 20260507013658 | 51 | 111 | 0.0 | 0.0 | 0.00 | 0.21 | 0.21 | 92 | 1018.7 |
| 20260507013156 | 51 | 90 | 0.0 | 0.0 | 0.00 | 0.21 | 0.21 | 91 | 1018.6 |
| 20260507012653 | 52 | 106 | 0.0 | 0.0 | 0.00 | 0.21 | 0.21 | 91 | 1018.8 |
| 20260507012148 | 52 | 108 | 0.9 | 0.9 | 0.00 | 0.21 | 0.21 | 91 | 1018.7 |
| 20260507011647 | 52 | 79 | 0.0 | 0.0 | 0.00 | 0.21 | 0.21 | 91 | 1018.9 |
| 20260507011142 | 52 | 96 | 0.0 | 0.0 | 0.00 | 0.21 | 0.21 | 91 | 1018.9 |
| 20260507010637 | 52 | 107 | 0.0 | 0.0 | 0.00 | 0.21 | 0.21 | 91 | 1018.9 |
| 20260507010133 | 53 | 115 | 0.0 | 0.0 | 0.00 | 0.21 | 0.21 | 90 | 1018.8 |
| 20260507005631 | 53 | 113 | 0.0 | 0.9 | 0.00 | 0.21 | 0.21 | 90 | 1019.0 |
| 20260507005122 | 53 | 105 | 0.0 | 0.0 | 0.00 | 0.21 | 0.21 | 90 | 1018.9 |
| 20260507004619 | 53 | 116 | 0.9 | 0.9 | 0.00 | 0.21 | 0.21 | 89 | 1018.8 |
| 20260507004116 | 53 | 77 | 0.0 | 0.0 | 0.00 | 0.21 | 0.21 | 89 | 1019.2 |
| 20260507003612 | 53 | 110 | 0.0 | 0.0 | 0.00 | 0.21 | 0.21 | 89 | 1018.8 |
| 20260507003107 | 53 | 123 | 0.9 | 1.7 | 0.00 | 0.21 | 0.21 | 89 | 1018.8 |
| 20260507002604 | 53 | 134 | 0.9 | 1.7 | 0.00 | 0.21 | 0.21 | 90 | 1018.8 |
| 20260507002059 | 54 | 96 | 0.0 | 0.0 | 0.00 | 0.21 | 0.21 | 90 | 1018.6 |
| 20260507001557 | 54 | 73 | 0.0 | 0.9 | 0.00 | 0.21 | 0.21 | 90 | 1018.8 |
| 20260507001054 | 54 | 142 | 1.7 | 1.7 | 0.00 | 0.21 | 0.21 | 90 | 1018.6 |
| 20260507000550 | 55 | 106 | 0.0 | 0.0 | 0.00 | 0.21 | 0.21 | 88 | 1018.8 |
| 20260507000046 | 55 | 100 | 0.0 | 0.0 | 0.00 | 0.21 | 0.21 | 88 | 1018.6 |
| 20260506235544 | 55 | 110 | 0.9 | 0.9 | 0.00 | 0.21 | 0.21 | 88 | 1018.5 |
| 20260506235039 | 55 | 117 | 0.9 | 0.9 | 0.00 | 0.21 | 0.21 | 88 | 1018.4 |
| 20260506234537 | 55 | 148 | 3.5 | 3.5 | 0.00 | 0.21 | 0.21 | 88 | 1018.2 |
| 20260506234033 | 54 | 130 | 3.5 | 3.5 | 0.00 | 0.21 | 0.21 | 90 | 1018.4 |
| 20260506233530 | 54 | 99 | 0.0 | 0.0 | 0.00 | 0.21 | 0.21 | 89 | 1018.3 |
| 20260506233021 | 54 | 96 | 0.0 | 0.9 | 0.00 | 0.21 | 0.21 | 89 | 1018.5 |
| 20260506232517 | 55 | 59 | 0.9 | 0.9 | 0.00 | 0.21 | 0.21 | 89 | 1018.3 |
| 20260506232013 | 55 | 34 | 0.9 | 1.7 | 0.00 | 0.21 | 0.21 | 89 | 1018.1 |
| 20260506231511 | 55 | 60 | 0.0 | 0.9 | 0.00 | 0.21 | 0.21 | 89 | 1018.1 |
| 20260506231009 | 55 | 74 | 0.0 | 0.0 | 0.00 | 0.21 | 0.21 | 88 | 1017.9 |
| 20260506230504 | 55 | 82 | 0.0 | 0.0 | 0.00 | 0.21 | 0.21 | 88 | 1017.8 |
| 20260506230001 | 55 | 125 | 0.9 | 1.7 | 0.00 | 0.21 | 0.21 | 88 | 1017.9 |
| 20260506225458 | 55 | 111 | 1.7 | 2.6 | 0.00 | 0.21 | 0.21 | 87 | 1017.9 |
| 20260506224954 | 55 | 356 | 0.9 | 1.7 | 0.00 | 0.21 | 0.21 | 87 | 1018.1 |
| 20260506224451 | 56 | 103 | 0.9 | 1.7 | 0.00 | 0.21 | 0.21 | 87 | 1017.6 |
| 20260506223948 | 56 | 201 | 4.3 | 5.2 | 0.00 | 0.21 | 0.21 | 87 | 1017.9 |
| 20260506223444 | 56 | 140 | 0.9 | 1.7 | 0.00 | 0.21 | 0.21 | 88 | 1017.7 |
| 20260506222941 | 56 | 39 | 2.6 | 2.6 | 0.00 | 0.21 | 0.21 | 88 | 1017.6 |
| 20260506222438 | 56 | 152 | 1.7 | 2.6 | 0.00 | 0.21 | 0.21 | 88 | 1017.8 |
| 20260506221934 | 56 | 262 | 3.5 | 3.5 | 0.00 | 0.21 | 0.21 | 89 | 1017.6 |
| 20260506221431 | 56 | 142 | 2.6 | 3.5 | 0.00 | 0.21 | 0.21 | 89 | 1017.4 |
| 20260506220930 | 56 | 156 | 0.9 | 1.7 | 0.00 | 0.21 | 0.21 | 89 | 1017.5 |
| 20260506220425 | 56 | 93 | 0.9 | 0.9 | 0.00 | 0.21 | 0.21 | 88 | 1017.6 |
| 20260506215921 | 56 | 154 | 1.7 | 3.5 | 0.00 | 0.21 | 0.21 | 88 | 1017.7 |
| 20260506215418 | 57 | 66 | 0.9 | 1.7 | 0.00 | 0.21 | 0.21 | 88 | 1017.5 |
| 20260506214913 | 57 | 111 | 0.0 | 0.0 | 0.00 | 0.21 | 0.21 | 87 | 1017.1 |
| 20260506214411 | 57 | 122 | 1.7 | 1.7 | 0.00 | 0.21 | 0.21 | 87 | 1017.2 |
| 20260506213908 | 57 | 212 | 2.6 | 3.5 | 0.00 | 0.21 | 0.21 | 87 | 1017.1 |
| 20260506213406 | 57 | 43 | 0.9 | 0.9 | 0.00 | 0.21 | 0.21 | 87 | 1016.9 |
| 20260506212903 | 57 | 194 | 1.7 | 2.6 | 0.00 | 0.21 | 0.21 | 86 | 1016.9 |
| 20260506212359 | 57 | 219 | 2.6 | 2.6 | 0.00 | 0.21 | 0.21 | 86 | 1016.7 |
| 20260506211853 | 57 | 135 | 0.9 | 0.9 | 0.00 | 0.21 | 0.21 | 86 | 1016.9 |
| 20260506211350 | 57 | 214 | 2.6 | 2.6 | 0.00 | 0.21 | 0.21 | 86 | 1016.7 |
| 20260506210842 | 57 | 223 | 5.2 | 7.0 | 0.00 | 0.21 | 0.21 | 86 | 1016.8 |
| 20260506210339 | 58 | 226 | 3.5 | 6.1 | 0.00 | 0.21 | 0.21 | 86 | 1016.8 |
| 20260506205836 | 58 | 319 | 3.5 | 3.5 | 0.00 | 0.21 | 0.21 | 86 | 1016.7 |
| 20260506205331 | 58 | 106 | 0.9 | 0.9 | 0.00 | 0.21 | 0.21 | 87 | 1016.8 |
| 20260506204823 | 58 | 48 | 1.7 | 1.7 | 0.00 | 0.21 | 0.21 | 87 | 1016.9 |
| 20260506204320 | 58 | 151 | 0.9 | 0.9 | 0.00 | 0.21 | 0.21 | 87 | 1016.8 |
| 20260506203818 | 58 | 206 | 2.6 | 3.5 | 0.00 | 0.21 | 0.21 | 87 | 1016.8 |
| 20260506203315 | 58 | 243 | 3.5 | 5.2 | 0.00 | 0.21 | 0.21 | 87 | 1016.6 |
| 20260506202812 | 58 | 163 | 1.7 | 2.6 | 0.00 | 0.21 | 0.21 | 88 | 1016.6 |
| 20260506202309 | 58 | 121 | 0.9 | 0.9 | 0.00 | 0.21 | 0.21 | 89 | 1016.4 |
| 20260506201805 | 58 | 214 | 2.6 | 2.6 | 0.00 | 0.21 | 0.21 | 89 | 1016.6 |
| 20260506201302 | 58 | 232 | 1.7 | 3.5 | 0.00 | 0.21 | 0.21 | 89 | 1016.8 |
| 20260506200759 | 57 | 261 | 4.3 | 7.0 | 0.00 | 0.21 | 0.21 | 90 | 1016.7 |
| 20260506200255 | 57 | 233 | 1.7 | 2.6 | 0.00 | 0.21 | 0.21 | 91 | 1016.4 |
| 20260506195752 | 58 | 184 | 6.1 | 8.7 | 0.00 | 0.21 | 0.21 | 92 | 1016.6 |
| 20260506195249 | 58 | 228 | 3.5 | 5.2 | 0.00 | 0.21 | 0.21 | 91 | 1016.4 |
| 20260506194746 | 58 | 170 | 5.2 | 7.8 | 0.00 | 0.21 | 0.21 | 90 | 1016.6 |
| 20260506194242 | 59 | 205 | 4.3 | 6.1 | 0.00 | 0.21 | 0.21 | 91 | 1016.2 |
| 20260506193740 | 58 | 203 | 1.7 | 2.6 | 0.00 | 0.21 | 0.21 | 92 | 1016.5 |
| 20260506193236 | 59 | 280 | 3.5 | 3.5 | 0.00 | 0.21 | 0.21 | 92 | 1016.4 |
| 20260506192733 | 59 | 61 | 0.0 | 0.0 | 0.00 | 0.21 | 0.21 | 92 | 1016.2 |
| 20260506192230 | 59 | 54 | 1.7 | 2.6 | 0.00 | 0.21 | 0.21 | 92 | 1016.1 |
| 20260506191727 | 58 | 307 | 1.7 | 2.6 | 0.00 | 0.21 | 0.21 | 92 | 1016.1 |
| 20260506191223 | 58 | 104 | 1.7 | 1.7 | 0.00 | 0.21 | 0.21 | 96 | 1015.9 |
| 20260506190720 | 58 | 152 | 1.7 | 1.7 | 0.00 | 0.21 | 0.21 | 98 | 1015.9 |
| 20260506190217 | 58 | 213 | 4.3 | 7.0 | 0.00 | 0.21 | 0.21 | 99 | 1015.9 |
| 20260506185715 | 57 | 227 | 2.6 | 3.5 | 0.00 | 0.21 | 0.21 | 99 | 1015.6 |
| 20260506185210 | 58 | 68 | 1.7 | 3.5 | 0.00 | 0.21 | 0.21 | 99 | 1015.7 |
| 20260506184708 | 58 | 225 | 0.9 | 1.7 | 0.00 | 0.21 | 0.21 | 99 | 1015.7 |
| 20260506184205 | 57 | 260 | 3.5 | 5.2 | 0.00 | 0.21 | 0.21 | 99 | 1015.4 |
| 20260506183701 | 57 | 266 | 3.5 | 5.2 | 0.00 | 0.21 | 0.21 | 99 | 1015.4 |
| 20260506183157 | 58 | 330 | 0.9 | 0.9 | 0.00 | 0.21 | 0.21 | 99 | 1015.0 |
| 20260506182655 | 58 | 290 | 1.7 | 3.5 | 0.00 | 0.21 | 0.21 | 99 | 1015.3 |
| 20260506182151 | 58 | 297 | 1.7 | 1.7 | 0.00 | 0.21 | 0.21 | 99 | 1015.0 |
| 20260506181644 | 58 | 86 | 0.9 | 0.9 | 0.00 | 0.21 | 0.21 | 99 | 1015.1 |
| 20260506181141 | 57 | 43 | 2.6 | 2.6 | 0.00 | 0.21 | 0.21 | 99 | 1015.3 |
| 20260506180638 | 58 | 320 | 2.6 | 7.0 | 0.00 | 0.21 | 0.21 | 99 | 1015.1 |
| 20260506180134 | 58 | 16 | 2.6 | 2.6 | 0.00 | 0.21 | 0.21 | 99 | 1015.0 |
| 20260506175630 | 59 | 261 | 3.5 | 5.2 | 0.00 | 0.21 | 0.21 | 99 | 1015.3 |
| 20260506175125 | 59 | 328 | 4.3 | 6.1 | 0.05 | 0.21 | 0.21 | 99 | 1014.9 |
| 20260506174620 | 58 | 345 | 3.5 | 5.2 | 0.05 | 0.21 | 0.21 | 99 | 1015.0 |
| 20260506174116 | 58 | 308 | 4.3 | 6.1 | 0.00 | 0.20 | 0.20 | 99 | 1014.9 |
| 20260506173614 | 58 | 333 | 8.7 | 12.2 | 0.00 | 0.20 | 0.20 | 99 | 1015.0 |
| 20260506173110 | 59 | 313 | 1.7 | 2.6 | 0.00 | 0.20 | 0.20 | 99 | 1015.1 |
| 20260506172608 | 58 | 344 | 5.2 | 7.8 | 0.00 | 0.20 | 0.20 | 99 | 1014.7 |
| 20260506172103 | 58 | 342 | 6.1 | 7.8 | 0.00 | 0.20 | 0.20 | 99 | 1015.0 |
| 20260506171601 | 58 | 333 | 5.2 | 7.0 | 0.07 | 0.20 | 0.20 | 99 | 1014.9 |
| 20260506171059 | 58 | 341 | 8.7 | 11.3 | 0.12 | 0.20 | 0.20 | 99 | 1014.8 |
| 20260506170555 | 57 | 38 | 7.8 | 11.3 | 0.05 | 0.19 | 0.19 | 99 | 1014.7 |
| 20260506170047 | 58 | 12 | 7.8 | 9.6 | 0.07 | 0.18 | 0.18 | 99 | 1014.6 |
| 20260506165546 | 58 | 280 | 7.8 | 9.6 | 0.19 | 0.18 | 0.18 | 99 | 1014.6 |
| 20260506165042 | 57 | 337 | 8.7 | 13.0 | 0.31 | 0.17 | 0.17 | 99 | 1014.5 |
| 20260506164539 | 57 | 359 | 5.2 | 7.0 | 0.19 | 0.15 | 0.15 | 99 | 1014.4 |
| 20260506164036 | 57 | 347 | 8.7 | 11.3 | 0.07 | 0.13 | 0.13 | 99 | 1014.4 |
| 20260506163532 | 57 | 344 | 5.2 | 6.1 | 0.00 | 0.12 | 0.12 | 99 | 1014.4 |
| 20260506163027 | 58 | 359 | 6.1 | 8.7 | 0.00 | 0.12 | 0.12 | 99 | 1014.5 |
| 20260506162524 | 58 | 1 | 8.7 | 9.6 | 0.00 | 0.12 | 0.12 | 99 | 1014.4 |
| 20260506162015 | 57 | 358 | 8.7 | 9.6 | 0.00 | 0.12 | 0.12 | 99 | 1014.1 |
| 20260506161512 | 58 | 30 | 7.0 | 8.7 | 0.05 | 0.12 | 0.12 | 99 | 1014.1 |
| 20260506161004 | 58 | 356 | 9.6 | 13.0 | 0.12 | 0.12 | 0.12 | 99 | 1013.9 |
| 20260506160502 | 58 | 331 | 9.6 | 11.3 | 0.07 | 0.11 | 0.11 | 99 | 1014.1 |
| 20260506155958 | 58 | 333 | 7.8 | 8.7 | 0.00 | 0.10 | 0.10 | 99 | 1014.1 |
| 20260506155456 | 58 | 21 | 5.2 | 7.0 | 0.00 | 0.10 | 0.10 | 99 | 1014.1 |
| 20260506153623 | 58 | 20 | 8.7 | 9.6 | 0.00 | 0.10 | 0.10 | 99 | 1013.9 |
| 20260506153120 | 58 | 11 | 6.1 | 7.8 | 0.00 | 0.10 | 0.10 | 99 | 1014.0 |
| 20260506152617 | 58 | 321 | 7.8 | 11.3 | 0.00 | 0.10 | 0.10 | 99 | 1013.7 |
| 20260506152115 | 57 | 349 | 7.8 | 8.7 | 0.00 | 0.10 | 0.10 | 99 | 1013.6 |
| 20260506151613 | 57 | 13 | 15.6 | 18.2 | 0.00 | 0.10 | 0.10 | 99 | 1013.5 |
| 20260506151109 | 57 | 12 | 11.3 | 13.0 | 0.00 | 0.10 | 0.10 | 99 | 1013.5 |
| 20260506150606 | 57 | 358 | 7.0 | 9.6 | 0.00 | 0.10 | 0.10 | 99 | 1013.4 |
| 20260506145600 | 57 | 12 | 7.8 | 13.0 | 0.00 | 0.10 | 0.10 | 99 | 1013.3 |
| 20260506145057 | 57 | 332 | 7.8 | 13.0 | 0.00 | 0.10 | 0.10 | 99 | 1013.5 |
| 20260506144554 | 57 | 350 | 7.0 | 8.7 | 0.00 | 0.10 | 0.10 | 99 | 1013.4 |
| 20260506144051 | 57 | 22 | 5.2 | 7.0 | 0.05 | 0.10 | 0.10 | 99 | 1013.3 |
| 20260506143549 | 57 | 348 | 5.2 | 7.8 | 0.05 | 0.10 | 0.10 | 99 | 1013.3 |
| 20260506143047 | 57 | 22 | 5.2 | 7.8 | 0.00 | 0.09 | 0.09 | 99 | 1013.2 |
| 20260506142544 | 57 | 345 | 6.1 | 8.7 | 0.00 | 0.09 | 0.09 | 99 | 1013.2 |
| 20260506142042 | 57 | 299 | 7.0 | 7.8 | 0.07 | 0.09 | 0.09 | 99 | 1013.3 |
| 20260506141540 | 57 | 313 | 7.0 | 9.6 | 0.07 | 0.09 | 0.09 | 99 | 1013.4 |
| 20260506141038 | 57 | 334 | 7.0 | 9.6 | 0.00 | 0.08 | 0.08 | 99 | 1013.3 |
| 20260506140535 | 57 | 1 | 7.8 | 9.6 | 0.05 | 0.08 | 0.08 | 99 | 1013.1 |
| 20260506140032 | 57 | 12 | 6.1 | 7.8 | 0.05 | 0.08 | 0.08 | 99 | 1013.0 |
| 20260506135529 | 57 | 332 | 7.0 | 11.3 | 0.00 | 0.07 | 0.07 | 99 | 1012.6 |
| 20260506135025 | 57 | 9 | 6.1 | 11.3 | 0.12 | 0.07 | 0.07 | 98 | 1012.5 |
| 20260506134522 | 57 | 339 | 10.4 | 14.8 | 0.12 | 0.07 | 0.07 | 97 | 1012.5 |
| 20260506134018 | 57 | 9 | 7.8 | 9.6 | 0.07 | 0.05 | 0.05 | 96 | 1012.5 |
| 20260506133515 | 58 | 338 | 6.1 | 8.7 | 0.19 | 0.05 | 0.05 | 95 | 1012.5 |
| 20260506133012 | 59 | 19 | 11.3 | 13.0 | 0.12 | 0.04 | 0.04 | 94 | 1012.3 |
| 20260506132509 | 59 | 20 | 12.2 | 18.2 | 0.00 | 0.02 | 0.02 | 92 | 1012.1 |
| 20260506132006 | 60 | 24 | 14.8 | 18.2 | 0.00 | 0.02 | 0.02 | 90 | 1012.3 |
| 20260506131503 | 60 | 12 | 18.2 | 26.1 | 0.00 | 0.02 | 0.02 | 89 | 1012.2 |
| 20260506131000 | 60 | 334 | 8.7 | 12.2 | 0.00 | 0.02 | 0.02 | 88 | 1012.2 |
| 20260506130456 | 60 | 349 | 11.3 | 14.8 | 0.00 | 0.02 | 0.02 | 88 | 1012.1 |
| 20260506125954 | 60 | 13 | 20.0 | 22.6 | 0.00 | 0.02 | 0.02 | 89 | 1012.3 |
| 20260506125452 | 59 | 17 | 13.0 | 15.6 | 0.00 | 0.02 | 0.02 | 91 | 1012.3 |
| 20260506124950 | 58 | 329 | 3.5 | 3.5 | 0.00 | 0.02 | 0.02 | 93 | 1012.3 |
| 20260506124447 | 57 | 18 | 5.2 | 7.8 | 0.00 | 0.02 | 0.02 | 94 | 1012.3 |
| 20260506123945 | 57 | 8 | 8.7 | 9.6 | 0.00 | 0.02 | 0.02 | 95 | 1012.1 |
| 20260506123443 | 56 | 29 | 5.2 | 6.1 | 0.07 | 0.02 | 0.02 | 95 | 1012.2 |
| 20260506122940 | 56 | 28 | 4.3 | 7.8 | 0.07 | 0.02 | 0.02 | 95 | 1012.1 |
| 20260506122437 | 56 | 306 | 7.0 | 7.8 | 0.07 | 0.02 | 0.02 | 94 | 1012.1 |
| 20260506121935 | 56 | 333 | 5.2 | 7.0 | 0.00 | 0.01 | 0.01 | 94 | 1012.3 |
| 20260506121432 | 56 | 340 | 2.6 | 3.5 | 0.00 | 0.01 | 0.01 | 94 | 1012.3 |
| 20260506120929 | 56 | 348 | 4.3 | 6.1 | 0.00 | 0.01 | 0.01 | 95 | 1012.2 |
| 20260506120426 | 55 | 7 | 6.1 | 7.0 | 0.00 | 0.01 | 0.01 | 95 | 1012.1 |
| 20260506115924 | 55 | 352 | 5.2 | 8.7 | 0.00 | 0.01 | 0.01 | 95 | 1012.1 |
| 20260506115421 | 55 | 9 | 7.0 | 8.7 | 0.00 | 0.01 | 0.01 | 96 | 1012.2 |
| 20260506114920 | 55 | 12 | 6.1 | 7.0 | 0.00 | 0.01 | 0.01 | 96 | 1011.9 |
| 20260506114417 | 55 | 355 | 7.8 | 11.3 | 0.00 | 0.01 | 0.01 | 96 | 1011.8 |
| 20260506113916 | 54 | 348 | 7.8 | 8.7 | 0.00 | 0.01 | 0.01 | 96 | 1011.8 |
| 20260506113412 | 54 | 358 | 5.2 | 7.0 | 0.00 | 0.01 | 0.01 | 96 | 1011.9 |
| 20260506112909 | 54 | 12 | 3.5 | 5.2 | 0.00 | 0.01 | 0.01 | 96 | 1011.8 |
| 20260506112407 | 54 | 1 | 6.1 | 7.0 | 0.05 | 0.01 | 0.01 | 95 | 1011.9 |
| 20260506111904 | 54 | 17 | 3.5 | 5.2 | 0.05 | 0.01 | 0.01 | 94 | 1011.8 |
| 20260506111402 | 54 | 341 | 5.2 | 7.0 | 0.00 | 0.00 | 0.00 | 93 | 1011.7 |
| 20260506110859 | 55 | 5 | 6.1 | 7.8 | 0.00 | 0.00 | 0.00 | 91 | 1012.0 |
| 20260506110356 | 55 | 343 | 8.7 | 12.2 | 0.00 | 0.00 | 0.00 | 89 | 1012.2 |
| 20260506105853 | 55 | 329 | 5.2 | 7.0 | 0.00 | 0.00 | 0.00 | 88 | 1011.8 |
| 20260506105349 | 55 | 358 | 6.1 | 8.7 | 0.00 | 0.00 | 0.00 | 88 | 1011.8 |
| 20260506104847 | 55 | 348 | 2.6 | 3.5 | 0.00 | 0.00 | 0.00 | 88 | 1011.7 |
| 20260506104344 | 56 | 337 | 7.8 | 9.6 | 0.00 | 0.00 | 0.00 | 88 | 1011.4 |
| 20260506103842 | 55 | 8 | 3.5 | 3.5 | 0.00 | 0.00 | 0.00 | 90 | 1011.3 |
| 20260506103339 | 54 | 14 | 5.2 | 7.0 | 0.00 | 0.00 | 0.00 | 91 | 1011.2 |
| 20260506102836 | 54 | 357 | 4.3 | 6.1 | 0.00 | 0.00 | 0.00 | 92 | 1011.3 |
| 20260506102334 | 54 | 31 | 3.5 | 3.5 | 0.00 | 0.00 | 0.00 | 92 | 1011.2 |
| 20260506101831 | 54 | 13 | 3.5 | 5.2 | 0.00 | 0.00 | 0.00 | 92 | 1011.2 |
| 20260506101327 | 54 | 12 | 7.0 | 8.7 | 0.00 | 0.00 | 0.00 | 93 | 1011.0 |
| 20260506100825 | 54 | 28 | 7.0 | 8.7 | 0.00 | 0.00 | 0.00 | 94 | 1011.2 |
| 20260506100324 | 53 | 39 | 5.2 | 7.0 | 0.00 | 0.00 | 0.00 | 95 | 1011.1 |
| 20260506095822 | 53 | 347 | 5.2 | 7.0 | 0.00 | 0.00 | 0.00 | 96 | 1011.3 |
| 20260506095318 | 53 | 357 | 6.1 | 7.0 | 0.00 | 0.00 | 0.00 | 97 | 1011.1 |
| 20260506094815 | 53 | 356 | 5.2 | 6.1 | 0.00 | 0.00 | 0.00 | 97 | 1011.1 |
| 20260506094314 | 53 | 354 | 6.1 | 7.0 | 0.00 | 0.00 | 0.00 | 98 | 1011.1 |
| 20260506093812 | 52 | 1 | 2.6 | 3.5 | 0.00 | 0.00 | 0.00 | 98 | 1011.1 |
| 20260506093308 | 52 | 58 | 0.9 | 1.7 | 0.00 | 0.00 | 0.00 | 98 | 1011.0 |
| 20260506092807 | 51 | 69 | 0.9 | 1.7 | 0.00 | 0.00 | 0.00 | 98 | 1011.0 |
| 20260506092306 | 51 | 80 | 0.9 | 0.9 | 0.00 | 0.00 | 0.00 | 98 | 1011.0 |
| 20260506091801 | 51 | 68 | 0.0 | 0.9 | 0.00 | 0.00 | 0.00 | 98 | 1011.0 |
| 20260506091258 | 51 | 88 | 0.0 | 0.0 | 0.00 | 0.00 | 0.00 | 98 | 1011.2 |
| 20260506090756 | 51 | 60 | 0.0 | 0.9 | 0.00 | 0.00 | 0.00 | 98 | 1011.2 |
| 20260506090253 | 51 | 63 | 0.9 | 1.7 | 0.00 | 0.00 | 0.00 | 98 | 1011.0 |
| 20260506085749 | 52 | 70 | 0.0 | 0.9 | 0.00 | 0.00 | 0.00 | 98 | 1010.9 |
| 20260506085246 | 51 | 75 | 0.0 | 0.9 | 0.00 | 0.00 | 0.00 | 98 | 1010.8 |
| 20260506084742 | 51 | 46 | 1.7 | 1.7 | 0.00 | 0.00 | 0.00 | 98 | 1010.9 |
| 20260506084239 | 51 | 10 | 1.7 | 2.6 | 0.00 | 0.00 | 0.00 | 98 | 1010.8 |
| 20260506083736 | 51 | 36 | 0.9 | 1.7 | 0.00 | 0.00 | 0.00 | 98 | 1010.7 |
| 20260506083234 | 51 | 64 | 0.9 | 0.9 | 0.00 | 0.00 | 0.00 | 98 | 1010.7 |
| 20260506082731 | 51 | 42 | 1.7 | 1.7 | 0.00 | 0.00 | 0.00 | 98 | 1010.8 |
| 20260506082226 | 52 | 85 | 0.0 | 0.9 | 0.00 | 0.00 | 0.00 | 98 | 1010.9 |
| 20260506081724 | 52 | 85 | 0.9 | 0.9 | 0.00 | 0.00 | 0.00 | 98 | 1010.8 |
| 20260506081221 | 52 | 48 | 0.0 | 0.9 | 0.00 | 0.00 | 0.00 | 98 | 1010.8 |
| 20260506080719 | 51 | 28 | 1.7 | 1.7 | 0.00 | 0.00 | 0.00 | 98 | 1011.0 |
| 20260506080215 | 51 | 52 | 1.7 | 1.7 | 0.00 | 0.00 | 0.00 | 98 | 1010.8 |
| 20260506073159 | 51 | 128 | 0.9 | 0.9 | 0.00 | 0.00 | 0.00 | 98 | 1010.9 |
| 20260506072656 | 51 | 77 | 0.0 | 0.0 | 0.00 | 0.00 | 0.00 | 98 | 1010.9 |
| 20260506072154 | 51 | 66 | 0.9 | 0.9 | 0.00 | 0.00 | 0.00 | 98 | 1010.9 |
| 20260506071651 | 51 | 42 | 1.7 | 1.7 | 0.00 | 0.00 | 0.00 | 98 | 1011.0 |
| 20260506071149 | 51 | 28 | 1.7 | 1.7 | 0.00 | 0.00 | 0.00 | 98 | 1011.2 |
| 20260506070646 | 51 | 44 | 1.7 | 1.7 | 0.00 | 0.00 | 0.00 | 98 | 1011.2 |
| 20260506070143 | 51 | 29 | 2.6 | 3.5 | 0.00 | 0.00 | 0.00 | 98 | 1011.4 |
| 20260506062120 | 49 | 129 | 0.0 | 0.0 | 0.00 | 0.00 | 0.00 | 97 | 1011.5 |
| 20260506061616 | 49 | 113 | 0.0 | 0.9 | 0.00 | 0.00 | 0.00 | 97 | 1011.6 |
| 20260506061114 | 50 | 85 | 0.0 | 0.0 | 0.00 | 0.00 | 0.00 | 97 | 1011.4 |
| 20260506060612 | 50 | 81 | 0.0 | 0.0 | 0.00 | 0.00 | 0.00 | 97 | 1011.7 |
| 20260506060108 | 50 | 78 | 0.0 | 0.9 | 0.00 | 0.00 | 0.00 | 97 | 1011.4 |